Flag for Estonia Weather past 2 weeks in Tallinn, Estonia

Now
61 °F

Scattered clouds.


Feels Like: 61 °F
Forecast: 46 / 56 °F
Wind: 12 mph from Southwest

Location: Tallinn

Current Time: May 22, 2015 at 2:13:18 PM

Latest Report: May 22, 2015 at 1:20 PM


Visibility: N/A

Pressure: 30.12 "Hg

Humidity: 48%

Dew point: 41 °F

Location of TallinnLocation

Historic Weather in Tallinn — Graph

°F

Tallinn temperature yesterday

Maximum temperature yesterday: 55 °F (at 4:50 PM)
Minimum temperature yesterday: 46 °F (at 7:20 AM)
Average temperature yesterday: 50 °F

Past Weeks' High & Low Weather Summary

 TemperatureHumidityPressure
High66 °F (May 12, 1:50 PM)100% (May 7, 2:50 PM)30.24 "Hg (May 7, 2:50 PM)
Low30 °F (May 10, 3:50 AM)33% (May 10, 10:50 AM)29.42 "Hg (May 13, 4:50 AM)
Average49 °F76%29.83 "Hg
* Reported May 7 12:20 PM — May 22 12:50 PM, Tallinn, Weather by CustomWeather, © 2015

Note: Actual official high and low records may vary slightly from our data, if they occured in-between our weather recording intervals... More about our weather records

Advertising

Tallinn weather history for previous 24 hours

 ConditionsComfort  
Time TempWeatherWind HumidityBarometerVisibility
12:50 PM
Fri, May 22
63 °FScattered clouds.10 mph52%30.12 "HgN/A
12:20 PM63 °FScattered clouds.9 mph49%30.12 "HgN/A
11:50 AM61 °FSunny.12 mph52%30.12 "Hg10 mi
11:20 AM61 °FSunny.12 mph52%30.15 "Hg10 mi
10:50 AM59 °FPassing clouds.10 mph55%30.15 "HgN/A
10:20 AM57 °FPassing clouds.10 mph59%30.15 "HgN/A
9:50 AM57 °FPassing clouds.10 mph59%30.15 "HgN/A
9:20 AM55 °FSunny.9 mph67%30.15 "Hg10 mi
8:50 AM54 °FSunny.9 mph72%30.15 "Hg10 mi
8:20 AM52 °FSunny.8 mph82%30.12 "Hg10 mi
7:50 AM50 °FSunny.6 mph82%30.12 "Hg10 mi
7:20 AM48 °FSunny.6 mph87%30.12 "Hg10 mi
6:50 AM46 °FSunny.5 mph93%30.12 "Hg10 mi
6:20 AM45 °FClear.3 mph93%30.12 "Hg6 mi
5:50 AM43 °FLight fog.No wind100%30.12 "HgN/A
5:20 AM41 °FSleet. Fog.2 mph93%30.12 "HgN/A
4:50 AM39 °FFog.2 mph93%30.12 "Hg5 mi
4:20 AM43 °FFog.3 mph93%30.12 "HgN/A
3:50 AM43 °FFog.2 mph100%30.12 "HgN/A
3:20 AM45 °FClear.5 mph93%30.12 "Hg10 mi
2:50 AM45 °FClear.7 mph93%30.12 "Hg10 mi
2:20 AM45 °FClear.8 mph93%30.12 "Hg10 mi
1:50 AM46 °FClear.9 mph87%30.12 "Hg10 mi
1:20 AM46 °FClear.10 mph87%30.12 "Hg10 mi
12:20 AM46 °FClear.8 mph87%30.09 "Hg10 mi
11:50 PM
Thu, May 21
46 °FClear.7 mph87%30.09 "Hg10 mi
11:20 PM46 °FClear.7 mph87%30.09 "Hg10 mi
10:50 PM48 °FSunny.8 mph82%30.09 "Hg10 mi
10:20 PM48 °FSunny.9 mph82%30.09 "Hg10 mi
9:50 PM50 °FSunny.9 mph76%30.07 "Hg10 mi
9:20 PM52 °FSunny.15 mph77%30.07 "Hg10 mi
8:50 PM52 °FSunny.14 mph72%30.07 "Hg10 mi
8:20 PM54 °FPassing clouds.13 mph72%30.07 "HgN/A
7:50 PM54 °FPassing clouds.13 mph77%30.04 "HgN/A
7:20 PM55 °FPassing clouds.10 mph72%30.04 "HgN/A
6:50 PM55 °FPassing clouds.14 mph72%30.04 "HgN/A
6:20 PM55 °FPassing clouds.15 mph67%30.04 "HgN/A
5:50 PM55 °FPassing clouds.16 mph67%30.04 "HgN/A
5:20 PM55 °FPassing clouds.14 mph67%30.04 "HgN/A
4:50 PM55 °FPassing clouds.12 mph67%30.04 "HgN/A
4:20 PM54 °FPartly sunny.13 mph72%30.04 "HgN/A
3:50 PM52 °FBroken clouds.12 mph77%30.04 "HgN/A
3:20 PM52 °FOvercast.7 mph77%30.04 "HgN/A
2:50 PM52 °FOvercast.6 mph77%30.04 "HgN/A
2:20 PM50 °FMore clouds than sun.7 mph82%30.04 "HgN/A
Weather by CustomWeather, © 2015

See weather overviewHow to use our weather pages